CST,Max TemperatureF,Mean TemperatureF,Min TemperatureF,Max Dew PointF,MeanDew PointF,Min DewpointF,Max Humidity, Mean Humidity, Min Humidity, Max Sea Level PressureIn, Mean Sea Level PressureIn, Min Sea Level PressureIn, Max VisibilityMiles, Mean VisibilityMiles, Min VisibilityMiles, Max Wind SpeedMPH, Mean Wind SpeedMPH, Max Gust SpeedMPH,PrecipitationIn, CloudCover, Events, WindDirDegrees
2011-11-1,61,48,36,38,28,23,71,48,26,29.95,29.87,29.83,10,10,10,15,10,17,0.00,0,,169
2011-11-2,46,41,36,36,31,26,89,68,50,30.23,30.16,30.01,10,10,7,25,16,34,0.12,6,,357
2011-11-3,49,38,26,27,22,16,78,58,28,30.31,30.26,30.21,10,10,10,18,11,22,0.00,0,,360
2011-11-4,53,40,27,31,23,15,77,59,23,30.26,30.15,30.01,10,10,10,23,11,28,0.00,0,,158
2011-11-5,59,46,34,40,36,31,93,71,39,30.01,29.80,29.65,10,9,2,32,17,40,0.00,0,,151
2011-11-6,52,43,34,40,30,18,76,56,29,30.04,29.76,29.57,10,10,10,26,20,34,0.00,0,,217
2011-11-7,52,40,29,23,17,9,63,40,18,30.23,30.16,30.07,10,10,10,12,7,,0.00,1,,359
2011-11-8,46,43,40,30,22,19,58,44,36,30.14,30.10,30.07,10,10,10,18,12,24,0.00,7,,38
2011-11-9,48,39,30,22,17,8,61,42,24,30.16,30.11,30.07,10,10,10,31,15,37,0.00,0,,314
2011-11-10,41,32,22,18,14,9,74,52,27,30.20,30.14,30.05,10,10,10,21,14,25,0.03,1,,283
2011-11-11,57,40,24,25,19,11,75,49,24,29.96,29.74,29.65,10,10,10,17,10,21,0.00,0,,216
2011-11-12,52,41,30,35,29,21,78,63,49,29.65,29.50,29.33,10,10,10,22,10,25,0.00,0,,186
2011-11-13,47,42,36,40,34,30,84,70,58,29.52,29.34,29.19,10,10,5,22,10,25,0.05,4,,262
2011-11-14,51,40,28,32,26,17,89,59,32,29.64,29.55,29.47,10,10,10,23,11,29,0.00,1,,226
2011-11-15,48,34,19,28,21,9,80,52,35,30.04,29.77,29.50,10,10,10,25,14,43,0.00,1,,277
2011-11-16,38,24,11,14,8,3,80,50,23,30.23,30.15,30.04,10,10,10,24,13,31,0.00,0,,275
2011-11-17,41,25,9,16,7,2,73,49,27,30.22,30.11,29.89,10,10,10,18,10,23,0.00,0,,214
2011-11-18,51,40,30,29,25,20,74,59,42,29.77,29.68,29.59,10,10,10,29,20,38,0.00,0,,200
2011-11-19,29,24,19,29,23,17,98,88,73,30.09,29.74,29.62,10,7,1,23,15,28,0.03,7,,11
2011-11-20,26,16,7,22,14,6,96,90,82,30.33,30.26,30.16,10,10,10,9,5,,0.00,1,,41
2011-11-21,32,22,12,32,22,11,100,97,93,30.27,30.20,30.11,10,4,0,10,4,,0.00,5,,116
2011-11-22,40,36,32,36,34,32,99,94,85,30.12,30.06,30.00,10,5,2,8,3,,0.00,8,,75
2011-11-23,43,35,27,37,32,28,100,94,73,30.14,30.11,30.07,10,3,0,15,9,18,0.00,4,,190
2011-11-24,62,46,30,41,36,30,100,71,41,30.04,29.89,29.78,10,9,3,26,13,32,0.00,0,,189
2011-11-25,51,46,40,45,43,40,97,86,76,29.75,29.70,29.62,10,7,3,25,17,30,0.00,5,,204
2011-11-26,46,40,33,46,31,24,100,82,64,30.11,29.89,29.67,10,9,2,34,20,46,0.00,7,,308
2011-11-27,32,28,23,24,21,18,82,70,62,30.24,30.20,30.14,10,10,10,30,21,38,0.00,6,,348
2011-11-28,42,26,11,26,17,10,99,77,41,30.17,30.10,30.05,10,10,7,15,8,21,0.00,0,,198
2011-11-29,39,30,20,27,15,-1,91,60,21,30.35,30.27,30.19,10,10,10,20,15,28,0.00,0,,353
2011-11-30,46,32,17,17,11,1,52,41,30,30.14,29.96,29.85,10,10,10,23,12,31,0.00,0,,194